TimeEDT,TemperatureF,Dew PointF,Humidity,Sea Level PressureIn,VisibilityMPH,Wind Direction,Wind SpeedMPH,Gust SpeedMPH,PrecipitationIn,Events,Conditions,WindDirDegrees,DateUTC
12:53 AM,64.9,46.9,52,30.30,10.0,ENE,3.5,-,N/A,,Overcast,60,2013-04-27 04:53:00
1:53 AM,62.1,46.9,58,30.29,10.0,North,4.6,-,N/A,,Scattered Clouds,10,2013-04-27 05:53:00
2:53 AM,66.0,46.0,48,30.27,10.0,ESE,6.9,-,N/A,,Overcast,120,2013-04-27 06:53:00
3:53 AM,64.0,46.9,54,30.26,10.0,East,5.8,-,N/A,,Overcast,90,2013-04-27 07:53:00
4:53 AM,64.0,46.0,52,30.25,10.0,East,5.8,-,N/A,,Overcast,80,2013-04-27 08:53:00
5:53 AM,61.0,48.0,62,30.27,10.0,ENE,5.8,-,N/A,,Overcast,60,2013-04-27 09:53:00
6:53 AM,61.0,48.9,64,30.27,10.0,ENE,6.9,-,N/A,,Overcast,70,2013-04-27 10:53:00
7:53 AM,61.0,48.9,64,30.29,10.0,East,3.5,-,N/A,,Overcast,90,2013-04-27 11:53:00
8:53 AM,61.0,48.9,64,30.29,10.0,East,6.9,-,N/A,,Mostly Cloudy,100,2013-04-27 12:53:00
9:53 AM,62.1,48.9,62,30.28,10.0,ESE,9.2,16.1,N/A,,Clear,120,2013-04-27 13:53:00
10:53 AM,64.9,48.9,56,30.27,10.0,ESE,9.2,16.1,N/A,,Scattered Clouds,110,2013-04-27 14:53:00
11:53 AM,69.1,50.0,51,30.26,10.0,East,9.2,-,N/A,,Partly Cloudy,100,2013-04-27 15:53:00
12:53 PM,70.0,46.9,44,30.24,10.0,SSE,11.5,-,N/A,,Overcast,150,2013-04-27 16:53:00
1:53 PM,73.0,48.0,41,30.22,10.0,SSE,11.5,-,N/A,,Mostly Cloudy,160,2013-04-27 17:53:00
2:53 PM,75.0,48.0,38,30.20,10.0,SE,8.1,-,N/A,,Overcast,130,2013-04-27 18:53:00
3:53 PM,73.9,48.9,41,30.18,10.0,Variable,6.9,-,N/A,,Overcast,0,2013-04-27 19:53:00
4:53 PM,73.9,50.0,43,30.17,10.0,Variable,5.8,-,N/A,,Overcast,0,2013-04-27 20:53:00
5:53 PM,72.0,50.0,46,30.15,10.0,East,5.8,-,N/A,,Overcast,90,2013-04-27 21:53:00
6:53 PM,72.0,48.9,44,30.14,10.0,ESE,5.8,17.3,N/A,,Scattered Clouds,120,2013-04-27 22:53:00
7:53 PM,68.0,54.0,61,30.14,10.0,East,13.8,19.6,N/A,,Overcast,90,2013-04-27 23:53:00
8:53 PM,68.0,53.1,59,30.15,10.0,East,11.5,17.3,N/A,,Overcast,100,2013-04-28 00:53:00
9:53 PM,64.0,53.1,67,30.14,10.0,East,11.5,19.6,N/A,,Mostly Cloudy,80,2013-04-28 01:53:00
10:53 PM,63.0,54.0,72,30.15,10.0,East,8.1,-,0.00,,Mostly Cloudy,90,2013-04-28 02:53:00
11:53 PM,62.1,55.0,78,30.14,10.0,ENE,9.2,-,0.00,,Overcast,70,2013-04-28 03:53:00